Hourly Weather Godzieby

Today, 18 May, Tuesday

Time Temperature Precipitation Wind Pressure Humidity
00:00 +11°C° 2.3 mm 4 mps 742 mmHg 96%
01:00 +10°C° 2.3 mm 3 mps 742 mmHg 96%
02:00 +10°C° 2.8 mm 3 mps 742 mmHg 96%
03:00 +10°C° 2.8 mm 3 mps 742 mmHg 96%
04:00 +10°C° 2.8 mm 3 mps 742 mmHg 96%
05:00 +10°C° 0.8 mm 3 mps 742 mmHg 96%
06:00 +10°C° 0.8 mm 3 mps 743 mmHg 95%
07:00 +10°C° 0.8 mm 3 mps 743 mmHg 95%
08:00 +11°C° 0.2 mm 3 mps 743 mmHg 92%
09:00 +12°C° 0.2 mm 3 mps 743 mmHg 89%
10:00 +12°C° 0.2 mm 4 mps 743 mmHg 87%
11:00 +13°C° 0.4 mm 4 mps 743 mmHg 83%
12:00 +14°C° 0.4 mm 4 mps 743 mmHg 80%
13:00 +14°C° 0.4 mm 5 mps 743 mmHg 77%
14:00 +14°C° 0.5 mm 5 mps 744 mmHg 78%
15:00 +14°C° 0.5 mm 5 mps 744 mmHg 80%
16:00 +14°C° 0.5 mm 5 mps 744 mmHg 81%
17:00 +13°C° 0.5 mm 4 mps 744 mmHg 84%
18:00 +13°C° 0.5 mm 4 mps 744 mmHg 87%
19:00 +12°C° 0.5 mm 3 mps 744 mmHg 89%
20:00 +11°C° 0 mm 3 mps 745 mmHg 91%
21:00 +10°C° 0 mm 3 mps 745 mmHg 93%
22:00 +10°C° 0 mm 3 mps 745 mmHg 95%
23:00 +9°C° 0 mm 3 mps 745 mmHg 95%

Tomorrow, 19 May, Wednesday

Time Temperature Precipitation Wind Pressure Humidity
00:00 +8°C° 0 mm 3 mps 745 mmHg 96%
01:00 +8°C° 0 mm 3 mps 745 mmHg 97%
02:00 +8°C° 0.1 mm 3 mps 745 mmHg 97%
03:00 +7°C° 0.1 mm 3 mps 746 mmHg 97%
04:00 +6°C° 0.1 mm 4 mps 746 mmHg 97%
05:00 +7°C° 0 mm 4 mps 746 mmHg 94%
06:00 +8°C° 0 mm 4 mps 746 mmHg 90%
07:00 +11°C° 0 mm 4 mps 747 mmHg 86%
08:00 +12°C° 0 mm 4 mps 747 mmHg 79%
09:00 +13°C° 0 mm 5 mps 747 mmHg 72%
10:00 +14°C° 0 mm 5 mps 747 mmHg 65%
11:00 +14°C° 0.1 mm 5 mps 747 mmHg 64%
12:00 +15°C° 0.1 mm 5 mps 747 mmHg 63%
13:00 +15°C° 0.1 mm 5 mps 747 mmHg 62%
14:00 +15°C° 0.4 mm 5 mps 747 mmHg 64%
15:00 +15°C° 0.4 mm 4 mps 747 mmHg 67%
16:00 +15°C° 0.4 mm 4 mps 747 mmHg 69%
17:00 +13°C° 0.5 mm 4 mps 747 mmHg 75%
18:00 +12°C° 0.5 mm 3 mps 748 mmHg 81%
19:00 +11°C° 0.5 mm 3 mps 748 mmHg 87%
20:00 +10°C° 0 mm 3 mps 748 mmHg 89%
21:00 +9°C° 0 mm 3 mps 748 mmHg 91%
22:00 +8°C° 0 mm 2 mps 749 mmHg 92%
23:00 +8°C° 0 mm 2 mps 749 mmHg 93%

Day after tomorrow, 20 May, Thursday

Time Temperature Precipitation Wind Pressure Humidity
00:00 +7°C° 0 mm 2 mps 749 mmHg 93%
01:00 +7°C° 0 mm 2 mps 749 mmHg 93%
02:00 +6°C° 0 mm 2 mps 749 mmHg 93%
03:00 +6°C° 0 mm 2 mps 750 mmHg 92%
04:00 +6°C° 0 mm 2 mps 750 mmHg 92%
05:00 +7°C° 0 mm 3 mps 750 mmHg 87%
06:00 +8°C° 0 mm 3 mps 751 mmHg 82%
07:00 +9°C° 0 mm 3 mps 751 mmHg 77%
08:00 +11°C° 0 mm 4 mps 751 mmHg 72%
09:00 +12°C° 0 mm 4 mps 751 mmHg 67%
10:00 +13°C° 0 mm 4 mps 751 mmHg 62%
11:00 +14°C° 0.1 mm 4 mps 751 mmHg 61%
12:00 +15°C° 0.1 mm 4 mps 751 mmHg 60%
13:00 +15°C° 0.1 mm 4 mps 750 mmHg 58%
14:00 +15°C° 0.4 mm 5 mps 751 mmHg 63%
15:00 +14°C° 0.4 mm 5 mps 751 mmHg 68%
16:00 +14°C° 0.4 mm 5 mps 751 mmHg 73%
17:00 +13°C° 0.3 mm 5 mps 751 mmHg 77%
18:00 +12°C° 0.3 mm 5 mps 751 mmHg 82%
19:00 +11°C° 0.3 mm 4 mps 751 mmHg 86%
20:00 +8°C° 0 mm 4 mps 752 mmHg 88%
21:00 +7°C° 0 mm 4 mps 752 mmHg 90%
22:00 +7°C° 0 mm 3 mps 752 mmHg 92%
23:00 +5°C° 0 mm 3 mps 752 mmHg 92%

21 May, Friday

Time Temperature Precipitation Wind Pressure Humidity
00:00 +5°C° 0 mm 3 mps 752 mmHg 93%
01:00 +4°C° 0 mm 3 mps 753 mmHg 93%
02:00 +4°C° 0 mm 3 mps 753 mmHg 93%
03:00 +3°C° 0 mm 3 mps 753 mmHg 94%
04:00 +3°C° 0 mm 3 mps 753 mmHg 94%
05:00 +5°C° 0 mm 3 mps 753 mmHg 90%
06:00 +7°C° 0 mm 3 mps 753 mmHg 85%
07:00 +9°C° 0 mm 3 mps 753 mmHg 81%
08:00 +10°C° 0.1 mm 4 mps 753 mmHg 75%
09:00 +10°C° 0.1 mm 5 mps 752 mmHg 69%
10:00 +12°C° 0.1 mm 5 mps 752 mmHg 62%
11:00 +12°C° 0 mm 5 mps 752 mmHg 62%
12:00 +13°C° 0 mm 5 mps 752 mmHg 62%
13:00 +13°C° 0 mm 5 mps 751 mmHg 62%
14:00 +13°C° 0 mm 5 mps 751 mmHg 61%
15:00 +14°C° 0 mm 4 mps 751 mmHg 59%
16:00 +14°C° 0 mm 4 mps 750 mmHg 57%
17:00 +13°C° 0 mm 3 mps 750 mmHg 63%
18:00 +12°C° 0 mm 3 mps 750 mmHg 69%
19:00 +12°C° 0 mm 2 mps 749 mmHg 75%
20:00 +12°C° 0 mm 2 mps 749 mmHg 75%
21:00 +10°C° 0 mm 2 mps 749 mmHg 75%
22:00 +10°C° 0 mm 3 mps 749 mmHg 75%
23:00 +10°C° 0 mm 3 mps 748 mmHg 76%

22 May, Saturday

Time Temperature Precipitation Wind Pressure Humidity
00:00 +10°C° 0 mm 3 mps 748 mmHg 77%
01:00 +10°C° 0 mm 3 mps 748 mmHg 78%
02:00 +9°C° 0 mm 3 mps 747 mmHg 80%
03:00 +9°C° 0 mm 3 mps 747 mmHg 82%
04:00 +8°C° 0 mm 3 mps 746 mmHg 84%
05:00 +10°C° 0 mm 4 mps 746 mmHg 80%
06:00 +10°C° 0 mm 5 mps 746 mmHg 76%
07:00 +13°C° 0 mm 6 mps 746 mmHg 72%
08:00 +14°C° 0 mm 6 mps 746 mmHg 69%
09:00 +15°C° 0 mm 6 mps 746 mmHg 66%
10:00 +16°C° 0 mm 6 mps 746 mmHg 63%
11:00 +16°C° 0.2 mm 5 mps 746 mmHg 65%
12:00 +16°C° 0.2 mm 5 mps 746 mmHg 66%
13:00 +17°C° 0.2 mm 5 mps 746 mmHg 68%
14:00 +16°C° 0.8 mm 5 mps 746 mmHg 74%
15:00 +14°C° 0.8 mm 5 mps 746 mmHg 80%
16:00 +13°C° 0.8 mm 5 mps 746 mmHg 86%
17:00 +13°C° 0.9 mm 4 mps 746 mmHg 88%
18:00 +12°C° 0.9 mm 3 mps 746 mmHg 91%
19:00 +12°C° 0.9 mm 2 mps 746 mmHg 93%
20:00 +10°C° 0.1 mm 2 mps 746 mmHg 93%
21:00 +10°C° 0.1 mm 2 mps 746 mmHg 93%
22:00 +10°C° 0.1 mm 2 mps 747 mmHg 93%
23:00 +9°C° 0 mm 2 mps 747 mmHg 92%

23 May, Sunday

Time Temperature Precipitation Wind Pressure Humidity
00:00 +8°C° 0 mm 2 mps 747 mmHg 91%
01:00 +8°C° 0 mm 2 mps 747 mmHg 90%
02:00 +7°C° 0 mm 3 mps 747 mmHg 90%
03:00 +7°C° 0 mm 3 mps 747 mmHg 89%
04:00 +7°C° 0 mm 3 mps 747 mmHg 89%
05:00 +8°C° 0 mm 3 mps 747 mmHg 85%
06:00 +10°C° 0 mm 3 mps 747 mmHg 81%
07:00 +11°C° 0 mm 3 mps 747 mmHg 77%
08:00 +13°C° 0 mm 4 mps 747 mmHg 71%
09:00 +14°C° 0 mm 4 mps 747 mmHg 66%
10:00 +15°C° 0 mm 4 mps 747 mmHg 60%
11:00 +17°C° 0.2 mm 4 mps 747 mmHg 60%
12:00 +16°C° 0.2 mm 5 mps 747 mmHg 59%
13:00 +16°C° 0.2 mm 5 mps 747 mmHg 59%
14:00 +17°C° 0.2 mm 4 mps 747 mmHg 60%
15:00 +17°C° 0.2 mm 4 mps 748 mmHg 62%
16:00 +17°C° 0.2 mm 4 mps 748 mmHg 63%
17:00 +16°C° 0.2 mm 3 mps 748 mmHg 69%
18:00 +13°C° 0.2 mm 3 mps 748 mmHg 75%
19:00 +13°C° 0.2 mm 2 mps 749 mmHg 82%
20:00 +12°C° 0.1 mm 2 mps 749 mmHg 84%
21:00 +10°C° 0.1 mm 2 mps 749 mmHg 86%
22:00 +10°C° 0.1 mm 2 mps 750 mmHg 88%
23:00 +9°C° 0 mm 2 mps 750 mmHg 89%
Show more